timestamp,surface_pressure_avg,surface_temp_avg,battery_voltage,lat,long
2023-04-17 00:09:00+00:00,265.7047,1.49,12.89,47.84626,-54.09684
2023-04-17 00:19:00+00:00,262.5048,1.46,12.81,47.84626,-54.09684
2023-04-17 00:29:00+00:00,252.2514,1.4,12.81,47.84626,-54.09684
2023-04-17 00:39:00+00:00,244.5747,1.4,12.81,47.84626,-54.09684
2023-04-17 00:49:00+00:00,240.6114,1.39,12.81,47.84626,-54.09684
2023-04-17 00:59:00+00:00,235.0381,1.38,12.81,47.84626,-54.09684
2023-04-17 01:09:00+00:00,226.8914,1.36,12.81,47.84626,-54.09684
2023-04-17 01:19:00+00:00,224.438,1.33,12.73,47.84626,-54.09684
2023-04-17 01:29:00+00:00,222.4764,1.31,12.73,47.84626,-54.09684
2023-04-17 01:39:00+00:00,215.2915,1.37,12.73,47.84626,-54.09684
2023-04-17 01:49:00+00:00,207.9181,1.4,12.73,47.84626,-54.09684
2023-04-17 01:59:00+00:00,207.2398,1.41,12.73,47.84626,-54.09684
2023-04-17 02:09:00+00:00,207.4931,1.46,12.73,47.84626,-54.09684
2023-04-17 02:19:00+00:00,201.9831,1.49,12.73,47.84626,-54.09684
2023-04-17 02:29:00+00:00,194.6164,1.5,12.73,47.84626,-54.09684
2023-04-17 02:39:00+00:00,194.8598,1.6,12.73,47.84626,-54.09684
2023-04-17 02:49:00+00:00,194.5748,1.64,12.73,47.84626,-54.09684
2023-04-17 02:59:00+00:00,190.4631,1.7,12.73,47.84626,-54.09684
2023-04-17 03:09:00+00:00,193.5364,1.7,12.73,47.84626,-54.09684
2023-04-17 03:19:00+00:00,197.9931,1.6,12.73,47.84626,-54.09684
2023-04-17 03:29:00+00:00,195.3065,1.55,12.73,47.84626,-54.09684
2023-04-17 03:39:00+00:00,194.0398,1.5,12.73,47.84626,-54.09684
2023-04-17 03:49:00+00:00,200.5031,1.5,12.73,47.84626,-54.09684
2023-04-17 03:59:00+00:00,201.8249,1.47,12.73,47.84626,-54.09684
2023-04-17 04:09:00+00:00,197.8798,1.47,12.73,47.84626,-54.09684
2023-04-17 04:19:00+00:00,200.3331,1.48,12.65,47.84626,-54.09684
2023-04-17 04:29:00+00:00,204.0115,1.5,12.65,47.84626,-54.09684
2023-04-17 04:39:00+00:00,203.9498,1.5,12.65,47.84626,-54.09684
2023-04-17 04:49:00+00:00,207.0164,1.5,12.65,47.84626,-54.09684
2023-04-17 04:59:00+00:00,211.5514,1.5,12.65,47.84626,-54.09684
2023-04-17 05:09:00+00:00,212.7447,1.5,12.65,47.84626,-54.09684
2023-04-17 05:19:00+00:00,214.7331,1.5,12.65,47.84626,-54.09684
2023-04-17 05:29:00+00:00,225.5948,1.53,12.65,47.84626,-54.09684
2023-04-17 05:39:00+00:00,234.0731,1.55,12.65,47.84626,-54.09684
2023-04-17 05:49:00+00:00,236.0214,1.57,12.65,47.84626,-54.09684
2023-04-17 05:59:00+00:00,240.7048,1.57,12.65,47.84626,-54.09684
2023-04-17 06:09:00+00:00,251.7897,1.57,12.65,47.84626,-54.09684
2023-04-17 06:19:00+00:00,259.9164,1.58,12.65,47.84626,-54.09684
2023-04-17 06:29:00+00:00,263.9814,1.59,12.65,47.84626,-54.09684
2023-04-17 06:39:00+00:00,271.8831,1.59,12.65,47.84626,-54.09684
2023-04-17 06:49:00+00:00,280.8864,1.59,12.65,47.84626,-54.09684
2023-04-17 06:59:00+00:00,283.9597,1.59,12.65,47.84626,-54.09684
2023-04-17 07:09:00+00:00,289.993,1.59,12.65,47.84626,-54.09684
2023-04-17 07:19:00+00:00,303.0013,1.59,12.65,47.84626,-54.09684
2023-04-17 07:29:00+00:00,312.1414,1.58,12.65,47.84626,-54.09684
2023-04-17 07:39:00+00:00,316.8613,1.56,12.65,47.84626,-54.09684
2023-04-17 07:49:00+00:00,322.6863,1.57,12.65,47.84626,-54.09684
2023-04-17 07:59:00+00:00,329.6946,1.58,12.65,47.84626,-54.09684
2023-04-17 08:09:00+00:00,335.5779,1.58,12.65,47.84626,-54.09684
2023-04-17 08:19:00+00:00,339.6745,1.59,12.65,47.84626,-54.09684
2023-04-17 08:29:00+00:00,343.8897,1.58,12.65,47.84626,-54.09684
2023-04-17 08:39:00+00:00,347.2563,1.59,12.65,47.84626,-54.09684
2023-04-17 08:49:00+00:00,349.2129,1.58,12.65,47.84626,-54.09684
2023-04-17 08:59:00+00:00,349.1729,1.55,12.65,47.84626,-54.09684
2023-04-17 09:09:00+00:00,349.3631,1.58,12.65,47.84626,-54.09684
2023-04-17 09:19:00+00:00,352.2278,1.55,12.57,47.84626,-54.09684
2023-04-17 09:29:00+00:00,352.408,1.56,12.57,47.84626,-54.09684
2023-04-17 09:39:00+00:00,353.3979,1.56,12.57,47.84626,-54.09684
2023-04-17 09:49:00+00:00,353.6545,1.56,12.57,47.84626,-54.09684
2023-04-17 09:59:00+00:00,352.0695,1.54,12.57,47.84626,-54.09684
2023-04-17 10:09:00+00:00,350.0896,1.56,12.57,47.84626,-54.09684
2023-04-17 10:19:00+00:00,345.3647,1.57,12.57,47.84626,-54.09684
2023-04-17 10:29:00+00:00,343.8931,1.59,12.57,47.84626,-54.09684
2023-04-17 10:39:00+00:00,343.2913,1.6,12.57,47.84626,-54.09684
2023-04-17 10:49:00+00:00,341.6079,1.6,12.57,47.84626,-54.09684
2023-04-17 10:59:00+00:00,337.8547,1.6,12.57,47.84626,-54.09684
2023-04-17 11:09:00+00:00,329.9247,1.6,12.57,47.84626,-54.09684
2023-04-17 11:19:00+00:00,325.8864,1.59,12.65,47.84626,-54.09684
2023-04-17 11:29:00+00:00,322.6497,1.57,12.65,47.84626,-54.09684
2023-04-17 11:39:00+00:00,314.643,1.5,12.65,47.84626,-54.09684
2023-04-17 11:49:00+00:00,303.063,1.53,12.65,47.84626,-54.09684
2023-04-17 11:59:00+00:00,300.3348,1.55,12.65,47.84626,-54.09684
2023-04-17 12:09:00+00:00,298.2947,1.58,12.65,47.84626,-54.09684
2023-04-17 12:19:00+00:00,288.5297,1.59,12.73,47.84626,-54.09684
2023-04-17 12:29:00+00:00,278.0064,1.6,12.73,47.84626,-54.09684
2023-04-17 12:39:00+00:00,275.6348,1.6,12.73,47.84626,-54.09684
2023-04-17 12:49:00+00:00,269.9731,1.6,12.73,47.84626,-54.09684
2023-04-17 12:59:00+00:00,258.3731,1.6,12.73,47.84626,-54.09684
2023-04-17 13:09:00+00:00,252.2131,1.6,12.73,47.84626,-54.09684
2023-04-17 13:19:00+00:00,250.083,1.6,13.29,47.84626,-54.09684
2023-04-17 13:29:00+00:00,241.3281,1.6,13.29,47.84626,-54.09684
2023-04-17 13:39:00+00:00,231.1181,1.63,13.29,47.84626,-54.09684
2023-04-17 13:49:00+00:00,229.7681,1.68,13.29,47.84626,-54.09684
2023-04-17 13:59:00+00:00,227.8598,1.7,13.29,47.84626,-54.09684
2023-04-17 14:09:00+00:00,221.2864,1.7,13.29,47.84626,-54.09684
2023-04-17 14:19:00+00:00,216.4998,1.7,13.76,47.84626,-54.09684
2023-04-17 14:29:00+00:00,214.9164,1.7,13.76,47.84626,-54.09684
2023-04-17 14:39:00+00:00,210.8615,1.7,13.76,47.84626,-54.09684
2023-04-17 14:49:00+00:00,207.3815,1.7,13.76,47.84626,-54.09684
2023-04-17 14:59:00+00:00,205.9682,1.7,13.76,47.84626,-54.09684
2023-04-17 15:09:00+00:00,201.0081,1.7,13.76,47.84626,-54.09684
2023-04-17 15:19:00+00:00,194.7031,1.7,13.68,47.84626,-54.09684
2023-04-17 15:29:00+00:00,193.2214,1.7,13.68,47.84626,-54.09684
2023-04-17 15:39:00+00:00,192.6781,1.7,13.68,47.84626,-54.09684
2023-04-17 15:49:00+00:00,189.6448,1.7,13.68,47.84626,-54.09684
2023-04-17 15:59:00+00:00,189.1798,1.7,13.68,47.84626,-54.09684
2023-04-17 16:09:00+00:00,193.4383,1.69,13.68,47.84626,-54.09684
2023-04-17 16:19:00+00:00,192.3232,1.69,13.76,47.84626,-54.09684
2023-04-17 16:29:00+00:00,189.4381,1.7,13.76,47.84626,-54.09684
2023-04-17 16:39:00+00:00,195.5831,1.7,13.76,47.84626,-54.09684
2023-04-17 16:49:00+00:00,199.5132,1.7,13.76,47.84626,-54.09684
2023-04-17 16:59:00+00:00,197.8499,1.7,13.76,47.84626,-54.09684
2023-04-17 17:09:00+00:00,203.1581,1.7,13.76,47.84626,-54.09684
2023-04-17 17:19:00+00:00,212.5365,1.7,13.84,47.84626,-54.09684
2023-04-17 17:29:00+00:00,214.2163,1.7,13.84,47.84626,-54.09684
2023-04-17 17:39:00+00:00,215.8631,1.7,13.84,47.84626,-54.09684
2023-04-17 17:49:00+00:00,221.8414,1.7,13.84,47.84626,-54.09684
2023-04-17 17:59:00+00:00,227.7881,1.7,13.84,47.84626,-54.09684
2023-04-17 18:09:00+00:00,232.5265,1.7,13.84,47.84626,-54.09684
2023-04-17 18:19:00+00:00,236.5331,1.7,13.92,47.84626,-54.09684
2023-04-17 18:29:00+00:00,241.288,1.7,13.92,47.84626,-54.09684
2023-04-17 18:39:00+00:00,244.6998,1.7,13.92,47.84626,-54.09684
2023-04-17 18:49:00+00:00,250.5114,1.7,13.92,47.84626,-54.09684
2023-04-17 18:59:00+00:00,256.1647,1.71,13.92,47.84626,-54.09684
2023-04-17 19:09:00+00:00,264.6847,1.7,13.92,47.84626,-54.09684
2023-04-17 19:19:00+00:00,273.548,1.7,13.76,47.84626,-54.09684
2023-04-17 19:29:00+00:00,282.553,1.7,13.76,47.84626,-54.09684
2023-04-17 19:39:00+00:00,287.863,1.7,13.76,47.84626,-54.09684
2023-04-17 19:49:00+00:00,295.558,1.7,13.76,47.84626,-54.09684
2023-04-17 19:59:00+00:00,299.1898,1.72,13.76,47.84626,-54.09684
2023-04-17 20:09:00+00:00,307.6714,1.7,13.76,47.84626,-54.09684
2023-04-17 20:19:00+00:00,318.6913,1.7,13.6,47.84626,-54.09684
2023-04-17 20:29:00+00:00,329.4113,1.75,13.6,47.84626,-54.09684
2023-04-17 20:39:00+00:00,333.9347,1.8,13.6,47.84626,-54.09684
2023-04-17 20:49:00+00:00,341.1980000000001,1.8,13.6,47.84626,-54.09684
2023-04-17 20:59:00+00:00,346.1478,1.8,13.6,47.84626,-54.09684
2023-04-17 21:09:00+00:00,347.8596,1.8,13.6,47.84626,-54.09684
2023-04-17 21:19:01+00:00,347.8495,1.78,13.44,47.84626,-54.09684
2023-04-17 21:29:01+00:00,356.0096,1.7,13.44,47.84626,-54.09684
2023-04-17 21:39:01+00:00,359.3431,1.7,13.44,47.84626,-54.09684
2023-04-17 21:49:01+00:00,353.3245,1.7,13.44,47.84626,-54.09684
2023-04-17 21:59:01+00:00,353.2881,1.7,13.44,47.84626,-54.09684
2023-04-17 22:09:01+00:00,356.8447,1.7,13.44,47.84626,-54.09684
2023-04-17 22:19:00+00:00,354.2112,1.7,13.21,47.84626,-54.09684
2023-04-17 22:29:00+00:00,346.528,1.7,13.21,47.84626,-54.09684
2023-04-17 22:39:00+00:00,346.3262,1.7,13.21,47.84626,-54.09684
2023-04-17 22:49:00+00:00,345.5013,1.7,13.21,47.84626,-54.09684
2023-04-17 22:59:00+00:00,339.2313,1.7,13.21,47.84626,-54.09684
2023-04-17 23:09:00+00:00,335.9047,1.7,13.21,47.84626,-54.09684
2023-04-17 23:19:00+00:00,336.1595,1.7,12.97,47.84626,-54.09684
2023-04-17 23:29:00+00:00,332.2314,1.7,12.97,47.84626,-54.09684
2023-04-17 23:39:00+00:00,329.478,1.7,12.97,47.84626,-54.09684
2023-04-17 23:49:00+00:00,325.4714,1.72,12.97,47.84626,-54.09684
2023-04-17 23:59:00+00:00,317.9412,1.78,12.97,47.84626,-54.09684
